Regional Weather Roundup
Issued by NWS

Home | Current Version | Previous Version | Graphics & Text | Print | Product List | Glossary Off
Versions: 1 2 3 4 5 6 7 8 9 10 11 12 13 14 15 16 17 18 19 20 21 22 23 24 25 26 27 28 29 30 31 32 33 34 35 36 37 38 39 40 41 42 43 44 45 46 47 48 49 50

859
ASUS43 KMKX 280311
RWRWI

WISCONSIN REGIONAL WEATHER ROUNDUP
NATIONAL WEATHER SERVICE MILWAUKEE/SULLIVAN WI
900 PM CST MON FEB 27 2017

NOTE: "FAIR" INDICATES FEW OR NO CLOUDS BELOW 12,000 FEET WITH NO
SIGNIFICANT WEATHER AND/OR OBSTRUCTIONS TO VISIBILITY.

WIZ001-002-006>008-014>016-023>028-280400-
NORTHWEST WISCONSIN

CITY           SKY/WX    TMP DP  RH WIND       PRES   REMARKS
SUPERIOR ARPT  CLOUDY    29  27  92 NE7       29.91F WCI  22
ASHLAND        PTCLDY    23  21  92 N5        29.93F WCI  17
HAYWARD        CLOUDY    35  18  49 S7        29.90F WCI  29
SIREN          CLOUDY    36  19  51 S8        29.88F WCI  30
CUMBERLAND     CLOUDY    32  21  64 SE6       29.90S WCI  26
RICE LAKE      CLOUDY    34  23  63 SE7       29.93S WCI  28
CHETEK         CLOUDY    34  22  61 SE5       29.92S WCI  30
LADYSMITH      MOCLDY    33  20  58 SE5       29.94S WCI  29
EAU CLAIRE     CLOUDY    38  23  55 SE9       29.92S WCI  31
MENOMONIE      CLOUDY    33  23  66 E7        29.90F WCI  27
NEW RICHMOND   CLOUDY    34  23  65 SE5       29.89F WCI  30
OSCEOLA        CLOUDY    36  24  62 SE3       29.92S
$$

WIZ003>005-009-010-017-018-280400-
NORTH CENTRAL WISCONSIN

CITY           SKY/WX    TMP DP  RH WIND       PRES   REMARKS
MANITOWISH WTR CLOUDY    30  17  59 SE7       29.93F WCI  23
ARBOR VITAE    PTCLDY    32  18  57 SE5         N/A  WCI  27
WOODRUFF       PTCLDY    32  18  57 SE5         N/A  WCI  27
RHINELANDER    CLEAR     32  21  64 SE7       29.97S WCI  26
EAGLE RIVER    PTCLDY    31  17  57 S6        29.96S WCI  25
LAND O LAKES   PTCLDY    32  18  56 S5        29.97S WCI  27
PHILLIPS       CLOUDY    32  19  58 S5        29.93S WCI  27
TOMAHAWK       CLEAR     31  20  64 S3        29.97R
MEDFORD        MOCLDY    33  25  71 SE8       29.94F WCI  27
MERRILL        NOT AVBL
$$

WIZ029-030-035-036-043>047-280400-
CENTRAL WISCONSIN

CITY           SKY/WX    TMP DP  RH WIND       PRES   REMARKS
WAUSAU         MOCLDY    32  23  69 SE6       29.98S WCI  26
MOSINEE        NOT AVBL
MARSHFIELD     CLOUDY    35  27  72 E6        29.95F WCI  30
STEVENS POINT  CLOUDY    32  28  82 E7        30.00F WCI  26
WAUPACA        CLOUDY    33  29  86 E3        30.03S
WAUTOMA        NOT AVBL
WISC RAPIDS    CLOUDY    36  30  79 SE8       29.99F WCI  30
CAMP DOUGLAS   MOCLDY    34  30  86 E3        29.96F
$$

WIZ011>013-019>022-031-037>040-048>050-280400-
NORTHEAST WISCONSIN

CITY           SKY/WX    TMP DP  RH WIND       PRES   REMARKS
ANTIGO         MOCLDY    29  25  82 SE12      29.99F WCI  20
SHAWANO        CLOUDY    33  29  86 CALM      30.05R
OCONTO         MOCLDY    30  28  93 CALM      30.06S
STURGEON BAY   MOCLDY    34  33  96 SE7       30.07S WCI  28
GREEN BAY      CLEAR     32  30  92 CALM      30.05S
MANITOWOC      PTCLDY    34  32  92 CALM      30.08R FOG
APPLETON       PTCLDY    34  28  80 CALM      30.02S
CLINTONVILLE   CLOUDY    32  28  86 CALM      30.03S
OSHKOSH        CLOUDY    34  30  85 CALM      30.03R
$$

WIZ032>034-041-042-053>061-280400-
SOUTHWEST WISCONSIN

CITY           SKY/WX    TMP DP  RH WIND       PRES   REMARKS
LA CROSSE      CLOUDY    42  32  67 E8        29.93S
SPARTA         CLOUDY    37  31  79 E6        29.94F WCI  32
VIROQUA        CLOUDY    38  32  79 SE10      29.93R WCI  31
BOSCOBEL       CLOUDY    36  31  82 CALM      29.97R
PRAIRIE DU CHI LGT RAIN  44  32  61 SE3       29.94R
PLATTEVILLE    CLOUDY    41  34  77 E9        29.96S
$$

WIZ056-057-062-063-064-067-068-280400-
SOUTH CENTRAL WISCONSIN

CITY           SKY/WX    TMP DP  RH WIND       PRES   REMARKS
REEDSBURG      PTCLDY    36  31  82 CALM      29.97S
BARABOO/DELLS  PTCLDY    38  30  73 E6        29.98S WCI  33
LONE ROCK      CLOUDY    40  32  73 E5        29.98S
MINERAL POINT  MOCLDY    45  34  65 SE8       29.96F
MADISON        CLOUDY    41  31  67 SE9       30.00F
MIDDLETON      CLOUDY    37  32  83 CALM      30.00S
WATERTOWN      CLOUDY    39  33  77 SE8       30.02F WCI  33
MONROE         CLOUDY    41  32  70 E3        29.98S
JANESVILLE     MOCLDY    43  36  75 SE5       30.00F
$$

WIZ051-052-058>065-066-070>072-280400-
SOUTHEAST WISCONSIN

CITY           SKY/WX    TMP DP  RH WIND       PRES   REMARKS
MILWAUKEE      MOCLDY    42  33  70 S7        30.05F
WAUKESHA       CLOUDY    36  32  87 CALM      30.05F
MILWAUKEE/TIMM CLEAR     39  30  70 CALM      30.06S
RACINE         CLOUDY    41  33  73 S9        30.08R
KENOSHA        CLOUDY    42  33  70 SE10      30.05F
FOND DU LAC    PTCLDY    37  29  72 SE5       30.03S WCI  33
SHEBOYGAN      CLOUDY    32  30  92 CALM      30.06R FOG
WEST BEND      MOCLDY    36  32  87 CALM      30.05S
JUNEAU         PTCLDY    37  31  79 E8        30.04S WCI  31
$$

LSZ147-162-280400-
LAKE SUPERIOR

STATION/POSITION TIME  TEMP    WIND        PRES    WAVE
                       AIR SEA DIR/SP/G            HT/PER
                 (UTC) (F)     (DEG/KT/KT) (MB)    (FT/S)
DEVILS ISLAND    0200   30     100/ 10/ 10 1014.7F
PORT WING        0140   29      60/  4/  5 1013.2S
SAXON HARBOR     0040   29     200/  1/  2 1013.9
$$

LMZ867-665-643>646-280400-
LAKE MICHIGAN

STATION/POSITION TIME  TEMP    WIND        PRES    WAVE
                       AIR SEA DIR/SP/G            HT/PER
                 (UTC) (F)     (DEG/KT/KT) (MB)    (FT/S)
CHAMBERS ISLAND  0140   34     150/  5/  8 1017.9R
NORTHPORT PIER   0240   35     150/  4/  6 1018.3S
SISTER BAY       0235   35     160/  8/ 11   N/A
KEWAUNEE LAKESHO 0248   35      CALM  /  3 1017.9R
SHEBOYGAN LAKESH 0200   37     180/  7/  8 1018.5F
PORT WASHINGTON  0140   38     180/  5/  7 1019.0S
MILWAUKEE LAKESH 0250   39     140/  4/  5   N/A
KENOSHA   LAKESH 0200   41     180/  9/ 11 1017.9
$$

TC  - TEMPERATURE IN CELSIUS
VSB - VISIBILITY IN STATUTE MILES
WCI - WIND CHILL INDEX
HX  - HEAT INDEX





USA.gov is the U.S. government's official web portal to all federal, state and local government web resources and services.